EB2EMZ-W Weather Reports


time (UTC)temp
C
wind
direction
speed
KPH
gust
KPH
rain 1hr
cm
rain 24hr
cm
rain mn
cm
humidity
%
barometer
mb
20260506071130 11 306 0.0 0.0 0.00 0.79 0.00 82 997.0
20260506061050 10 306 0.0 0.0 0.00 0.79 0.00 85 997.0
20260506051010 10 306 0.0 0.0 0.00 0.79 0.00 85 997.0
20260506043950 10 306 0.0 0.0 0.00 0.79 0.00 85 997.0
20260506040930 10 306 0.0 0.0 0.00 0.79 0.00 85 1041.0
20260506033909 11 306 0.0 0.0 0.00 0.79 0.00 85 997.0
20260506030850 11 306 0.0 0.0 0.00 0.79 0.00 84 997.0
20260506023830 11 306 0.0 0.0 0.00 0.79 0.00 83 997.0
20260506020809 11 306 0.0 0.0 0.00 0.79 0.00 83 997.0
20260506013749 11 306 0.0 0.0 0.00 0.79 0.00 83 997.0
20260506010728 11 306 0.0 0.0 0.00 0.79 0.00 83 997.0
20260506003708 11 307 0.0 0.0 0.00 0.79 0.00 84 998.0
20260506000648 11 306 0.0 0.0 0.00 0.79 0.00 85 998.0
20260505233629 11 306 0.0 0.0 0.00 0.79 0.00 84 998.0
20260505224544 11 306 0.0 0.0 0.00 0.89 0.00 85 998.0
20260505221532 11 306 0.0 0.0 0.00 0.89 0.00 85 998.0
20260505214519 11 306 0.0 0.0 0.00 0.89 0.89 85 998.0
20260505211505 11 306 0.0 0.0 0.00 0.89 0.89 85 998.0
20260505204452 11 306 0.0 0.0 0.00 0.89 0.89 85 998.0
20260505201439 12 306 0.0 0.0 0.00 0.89 0.89 83 997.0
20260505194426 12 305 0.0 0.0 0.00 0.89 0.89 79 997.0
20260505191412 13 306 0.0 0.0 0.00 0.89 0.89 77 997.0
20260505184359 13 306 0.0 0.0 0.00 0.89 0.89 75 997.0
20260505181346 13 306 0.0 0.0 0.10 0.89 0.89 68 997.0
20260505174333 13 306 0.0 0.0 0.10 0.89 0.89 67 997.0
20260505171320 13 312 0.0 4.8 0.00 0.79 0.79 65 997.0
20260505164306 14 357 0.0 0.0 0.30 0.79 0.79 68 997.0
20260505161252 15 320 0.0 0.0 0.30 0.79 0.79 63 997.0